FW2520 Weather Reports


time (UTC)temp
F
wind
direction
speed
knots
gust
knots
rain 1hr
in
rain 24hr
in
rain mn
in
humidity
%
barometer
mb
20260508184500 69 221 4.3 8.7 0.00 0.10 0.03 31 1017.4
20260508183100 68 286 1.7 9.6 0.01 0.10 0.03 30 1017.6
20260508181600 68 309 5.2 8.7 0.01 0.10 0.03 30 1017.5
20260508180059 67 80 0.0 7.0 0.01 0.10 0.03 34 1017.6
20260508173059 67 266 2.6 6.1 0.00 0.09 0.02 31 1018.1
20260508171559 68 244 2.6 7.8 0.00 0.09 0.02 29 1018.2
20260508170058 67 183 1.7 4.3 0.00 0.09 0.02 31 1018.4
20260508163054 66 92 0.9 4.3 0.00 0.10 0.02 32 1018.9
20260508161558 65 144 1.7 7.0 0.00 0.10 0.02 33 1019.0
20260508160049 64 292 0.9 3.5 0.01 0.10 0.02 33 1019.4
20260508153048 64 5 0.9 5.2 0.01 0.11 0.02 33 1019.7
20260508151551 63 360 2.6 7.0 0.01 0.11 0.02 33 1019.6
20260508150058 64 125 1.7 5.2 0.00 0.10 0.01 32 1019.6
20260508144546 64 24 1.7 4.3 0.00 0.10 0.01 33 1019.7
20260508143058 63 315 0.9 4.3 0.00 0.10 0.01 35 1019.8
20260508140046 61 76 1.7 8.7 0.00 0.10 0.01 40 1020.0
20260508134535 61 35 5.2 8.7 0.00 0.10 0.01 38 1019.9
20260508133032 60 88 0.9 7.0 0.01 0.11 0.01 42 1019.9
20260508130027 58 51 3.5 5.2 0.01 0.11 0.01 47 1019.7
20260508124524 57 38 2.6 5.2 0.01 0.11 0.01 52 1019.5
20260508123021 57 43 1.7 4.3 0.00 0.11 0.00 52 1019.3
20260508120014 54 41 0.9 4.3 0.00 0.11 0.00 54 1018.9
20260508114510 52 348 0.9 2.6 0.00 0.11 0.00 56 1018.8
20260508113008 51 346 0.9 1.7 0.00 0.12 0.00 57 1018.3
20260508110005 49 346 0.9 3.5 0.00 0.12 0.00 59 1017.8
20260508104502 49 346 0.0 2.6 0.00 0.12 0.00 59 1017.6
20260508103103 49 346 0.0 3.5 0.00 0.12 0.00 60 1017.4
20260508100055 50 340 0.9 1.7 0.00 0.12 0.00 60 1017.1
20260508094552 50 339 0.9 3.5 0.01 0.12 0.00 59 1016.9
20260508093051 51 337 0.0 2.6 0.01 0.14 0.12 58 1017.0
20260508090047 51 338 0.9 3.5 0.01 0.14 0.12 60 1016.6
20260508084555 51 337 0.9 2.6 0.01 0.14 0.12 60 1016.6
20260508083053 51 333 0.9 3.5 0.00 0.14 0.11 61 1016.4
20260508080059 52 317 0.0 0.9 0.00 0.14 0.11 59 1016.2
20260508074542 52 317 0.0 2.6 0.00 0.14 0.11 60 1016.0
20260508073049 53 317 0.0 0.9 0.00 0.16 0.11 61 1015.8
20260508070038 54 317 0.0 0.0 0.00 0.16 0.11 61 1015.7
20260508064545 54 317 0.0 0.9 0.00 0.16 0.11 62 1015.6
20260508063037 54 317 0.0 1.7 0.00 0.19 0.11 61 1015.5
20260508060032 55 317 0.0 0.9 0.01 0.19 0.11 60 1015.7
20260508054542 55 317 0.0 0.9 0.01 0.19 0.11 60 1015.8
20260508053028 56 317 0.0 0.0 0.01 0.21 0.11 57 1015.7
20260508050024 57 317 0.0 1.7 0.00 0.20 0.10 53 1015.6
20260508044523 58 317 0.0 1.7 0.00 0.20 0.10 51 1015.3
20260508043021 58 317 0.0 2.6 0.00 0.24 0.10 51 1015.2
20260508040035 60 317 0.9 2.6 0.00 0.24 0.10 48 1015.2
20260508034513 60 317 0.9 2.6 0.00 0.24 0.10 46 1015.0
20260508033014 60 318 0.0 2.6 0.00 0.28 0.10 45 1015.0
20260508030012 61 338 1.7 4.3 0.00 0.28 0.10 44 1014.8
20260508024519 61 311 0.9 3.5 0.00 0.35 0.10 43 1014.7
20260508023010 62 323 0.9 3.5 0.01 0.35 0.10 42 1014.4
20260508020001 62 315 0.9 7.8 0.01 0.35 0.10 42 1014.0
20260508014559 63 276 1.7 7.8 0.01 0.35 0.10 43 1013.8
20260508013057 64 295 1.7 5.2 0.00 0.43 0.09 44 1013.4
20260508010055 64 343 2.6 7.8 0.00 0.43 0.09 43 1013.0
20260508004555 64 300 4.3 7.8 0.00 0.43 0.09 44 1012.9
20260508003053 65 314 1.7 7.8 0.00 0.57 0.09 47 1012.4
20260508000057 65 34 3.5 7.0 0.01 0.57 0.09 57 1011.6
20260507234556 66 24 3.5 7.8 0.01 0.57 0.09 57 1011.3
20260507233110 66 15 4.3 10.4 0.01 0.63 0.09 58 1011.2
20260507230051 67 19 6.1 14.8 0.00 0.62 0.08 58 1010.6
20260507224549 68 45 6.1 15.6 0.00 0.62 0.08 57 1010.0
20260507223057 75 42 6.1 10.4 0.00 0.62 0.08 42 1009.3
20260507220047 75 360 7.0 13.9 0.01 0.62 0.08 44 1008.7
20260507214548 76 230 3.5 8.7 0.01 0.62 0.08 49 1008.5
20260507213046 76 232 6.1 13.0 0.01 0.62 0.08 49 1008.5
20260507210104 76 244 5.2 12.2 0.00 0.61 0.07 46 1008.2
20260507204547 76 240 7.0 15.6 0.00 0.61 0.07 46 1008.2
20260507203043 77 258 5.2 12.2 0.01 0.61 0.07 45 1008.2
20260507200050 76 242 3.5 9.6 0.01 0.61 0.07 45 1008.3
20260507194548 76 230 3.5 12.2 0.01 0.61 0.07 44 1008.6
20260507193035 76 249 5.2 10.4 0.00 0.60 0.06 43 1008.6
20260507190042 75 227 5.2 10.4 0.01 0.60 0.06 44 1009.3